カタログに戻る

STARLINK-2047

運用中通信VLEO
NORAD 47355·PAYLOAD·🇺🇸 United States

打ち上げ Jan 20, 2021 から Cape Canaveral Space Force Station

Loading…

次のパス (今後24時間)

TLE

最新Source: CelesTrak SupGP

元期: Sep 15, 2026, 01:08 UTC

1 47355C 21005G   26258.04770833 -.00026905  00000+0 -86528-3 0  2580
2 47355  53.1592 209.7610 0001430  88.1825 269.3757 15.31711964    14

AllMySatでSTARLINK-2047をリアルタイム追跡

Download on the App Store